Starlink 32265

operational
NORAD ID: 60415 Int'l Des: 2024-141 Owner: SPXS Country: US Constellation: starlink
LEOCIRCULAR

关于 Starlink 32265

正在加载描述...

实时位置

正在加载3D地球...

即将过境

高度历史

Altitude vs Time

uPlot chart will show altitude changes over time

两行轨道根数

1 60415U 24141T 25351.16123360 -.00000611 00000-0 -84814-5 0 9996
2 60415 53.1614 266.0295 0001608 88.9346 271.1839 15.30194249 76946
Epoch: Dec 17, 2025 • Age: 11 hours

当前状态

高度 494.8 km
速度 7.62 km/s
星下点 -53.14°S, 135.41°W
发射日期 Aug 10, 2024
运行时间 1.3 years
类型 internet

技术详情

分类 Payload
质量 730.00 kg
干质量 700.00 kg
总质量 730.00 kg
长度 0.30 m
直径 4.10 m
跨度 29.00 m
形状 Box + pan
制造商 SPXS
平台类型 Starlink V2M
阶段状态 In Orbit
所有者/国家 SPXS/US

大型星座

Loading constellations...